DW4461 Felixstowe UK current weather conditions

sailwx.info

Wind from 248 at 4 knots gusting 7

Air temperature 24.4° C
Dewpoint 15.1° C

Last reported at 2019-Aug-18 13:06 UTC.
Time now 2019-Aug-18 14:02 UTC

Location: N 51°57' E 001°20'.
View on Google Maps.

See reports from other nearby stations

  
Tides and Currents Weather Stations Pressure Air Temp Water Temp Dewpoint Dewpoint Depression Visibility Wind Speed Wind Dir Waves Ship Positions
date/time (UTC)wind fromknots sea level pressurealtimeterstation pressurevisibilityair tempwater tempwave heightnotes
2019-Aug-18 13:06 248 4 gusting 7 24.4
2019-Aug-18 13:01 315 23.9
2019-Aug-18 12:56 270 5 gusting 7 22.8
2019-Aug-18 12:51 270 1 gusting 8 22.2
2019-Aug-18 12:46 225 6 gusting 9 21.7
2019-Aug-18 12:41 270 7 gusting 9 21.7
2019-Aug-18 12:36 270 0 gusting 10 21.1
2019-Aug-18 12:31 248 1 gusting 8 21.1
2019-Aug-18 12:26 248 3 gusting 8 21.1
2019-Aug-18 12:21 225 3 gusting 7 20.6
2019-Aug-18 12:16 248 0 gusting 11 19.4
2019-Aug-18 12:11 270 0 gusting 8 18.9
2019-Aug-18 12:06 270 6 gusting 6 18.3
2019-Aug-18 12:01 270 4 gusting 5 17.8
2019-Aug-18 11:56 248 2 gusting 4 17.8
2019-Aug-18 11:51 248 5 gusting 6 17.2
2019-Aug-18 11:46 270 1 gusting 6 16.7
2019-Aug-18 11:41 293 16.1
2019-Aug-18 11:36 270 0 gusting 7 16.1
2019-Aug-18 11:31 270 16.1
2019-Aug-18 11:26 270 15.6
2019-Aug-18 11:21 270 15.6
2019-Aug-18 11:16 315 15.6
2019-Aug-18 11:11 315 15.6
2019-Aug-18 11:06 270 1 gusting 10 16.1
2019-Aug-18 11:01 338 1 gusting 11 16.7
2019-Aug-18 10:56 248 17.8
2019-Aug-18 10:51 293 5 gusting 13 18.9
2019-Aug-18 10:46 225 2 gusting 13 18.9
2019-Aug-18 10:41 270 19.4
2019-Aug-18 10:36 293 2 gusting 8 20.0
2019-Aug-18 10:31 248 7 gusting 8 20.6
2019-Aug-18 10:26 225 7 gusting 11 21.1
2019-Aug-18 10:21 248 2 gusting 10 21.1
2019-Aug-18 10:16 248 6 gusting 9 21.1
2019-Aug-18 10:11 225 3 gusting 11 20.6
2019-Aug-18 10:06 270 1 gusting 12 20.6
2019-Aug-18 10:01 248 10 gusting 13 20.6
2019-Aug-18 09:56 248 4 gusting 10 20.6
2019-Aug-18 09:51 225 6 gusting 8 20.6
2019-Aug-18 09:46 225 8 gusting 10 20.0
2019-Aug-18 09:41 248 2 gusting 6 20.0
2019-Aug-18 09:36 293 2 gusting 5 19.4
2019-Aug-18 09:31 248 3 gusting 6 19.4
2019-Aug-18 09:26 270 1 gusting 8 19.4
2019-Aug-18 09:21 225 1 gusting 9 19.4
2019-Aug-18 09:16 248 4 gusting 4 19.4
2019-Aug-18 09:11 203 2 gusting 5 19.4
2019-Aug-18 09:06 225 5 gusting 7 19.4
2019-Aug-18 09:01 248 5 gusting 6 18.9
2019-Aug-18 08:56 248 2 gusting 9 18.9
2019-Aug-18 08:51 225 2 gusting 9 18.9
2019-Aug-18 08:46 270 4 gusting 9 18.9
2019-Aug-18 08:36 248 4 gusting 6 18.3
2019-Aug-18 08:31 225 5 gusting 8 17.8
2019-Aug-18 08:26 248 8 gusting 8 17.8
2019-Aug-18 08:21 270 0 gusting 8 17.8
2019-Aug-18 08:16 248 3 gusting 7 17.8
2019-Aug-18 08:11 270 0 gusting 8 17.8
2019-Aug-18 08:06 248 6 gusting 7 17.8
2019-Aug-18 08:01 338 17.2
2019-Aug-18 07:56 248 5 gusting 8 17.2
2019-Aug-18 07:51 248 4 gusting 6 17.2
2019-Aug-18 07:46 270 2 gusting 4 16.7
2019-Aug-18 07:41 248 8 gusting 11 16.7
2019-Aug-18 07:36 270 2 gusting 9 16.7
2019-Aug-18 07:31 248 3 gusting 6 16.7
2019-Aug-18 07:26 248 11 gusting 11 16.7
2019-Aug-18 07:21 225 3 gusting 6 16.1
2019-Aug-18 07:16 248 1 gusting 9 16.1
2019-Aug-18 07:11 270 2 gusting 6 16.1
2019-Aug-18 07:06 270 2 gusting 13 16.1
2019-Aug-18 07:01 248 3 gusting 7 16.1
2019-Aug-18 06:56 270 0 gusting 6 15.6
2019-Aug-18 06:51 270 4 gusting 6 15.6
2019-Aug-18 06:46 270 0 gusting 5 15.6
2019-Aug-18 06:41 248 3 gusting 9 15.6
2019-Aug-18 06:36 248 2 gusting 6 15.6
2019-Aug-18 06:31 270 1 gusting 7 15.6
2019-Aug-18 06:26 248 3 gusting 4 15.6
2019-Aug-18 06:21 248 2 gusting 8 15.6
2019-Aug-18 06:16 248 3 gusting 4 15.0
2019-Aug-18 06:11 270 1 gusting 3 15.0
2019-Aug-18 06:06 270 1 gusting 4 15.0
2019-Aug-18 06:01 270 15.0
2019-Aug-18 05:56 248 15.0
2019-Aug-18 05:51 248 15.0
2019-Aug-18 05:46 270 15.0
2019-Aug-18 05:41 293 1 gusting 6 15.0
2019-Aug-18 05:36 225 5 gusting 5 15.0
2019-Aug-18 05:31 248 15.0
2019-Aug-18 05:26 293 15.0
2019-Aug-18 05:21 248 1 gusting 5 14.4
2019-Aug-18 05:16 248 1 gusting 4 15.0
2019-Aug-18 05:11 203 4 gusting 6 15.0
2019-Aug-18 05:06 248 0 gusting 5 15.0
2019-Aug-18 05:01 270 0 gusting 4 15.0
2019-Aug-18 04:56 293 15.0
2019-Aug-18 04:51 248 15.0
2019-Aug-18 04:46 270 0 gusting 6 15.0
2019-Aug-18 04:41 315 1 gusting 8 15.0
2019-Aug-18 04:36 248 0 gusting 9 15.0
2019-Aug-18 04:31 248 1 gusting 8 15.6
2019-Aug-18 04:26 248 4 gusting 9 15.6
2019-Aug-18 04:21 270 3 gusting 5 15.6
2019-Aug-18 04:16 270 5 gusting 10 15.6
2019-Aug-18 04:11 248 5 gusting 8 15.6
2019-Aug-18 04:06 225 8 gusting 10 15.6
2019-Aug-18 04:01 270 2 gusting 6 15.6
2019-Aug-18 03:56 248 6 gusting 8 15.6
2019-Aug-18 03:51 270 1 gusting 8 15.6
2019-Aug-18 03:46 248 8 gusting 9 15.6
2019-Aug-18 03:41 270 4 gusting 6 15.6
2019-Aug-18 03:36 248 4 gusting 8 15.6
2019-Aug-18 03:31 248 3 gusting 5 15.6
2019-Aug-18 03:26 248 15.6
2019-Aug-18 03:21 248 1 gusting 6 15.6
2019-Aug-18 03:16 248 2 gusting 4 15.6
2019-Aug-18 03:11 248 0 gusting 5 15.6
2019-Aug-18 03:06 248 1 gusting 6 15.6
2019-Aug-18 03:01 203 1 gusting 6 15.6
2019-Aug-18 02:56 248 2 gusting 4 15.6
2019-Aug-18 02:51 270 2 gusting 4 15.6
2019-Aug-18 02:46 248 2 gusting 7 15.6
2019-Aug-18 02:41 248 5 gusting 6 15.6
2019-Aug-18 02:36 270 1 gusting 2 15.6
2019-Aug-18 02:31 248 0 gusting 5 15.6
2019-Aug-18 02:26 270 1 gusting 4 15.6
2019-Aug-18 02:21 270 15.6
2019-Aug-18 02:16 270 15.6
2019-Aug-18 02:11 293 2 gusting 5 15.6
2019-Aug-18 02:06 270 1 gusting 2 15.6
2019-Aug-18 02:01 248 1 gusting 3 15.6
2019-Aug-18 01:56 270 0 gusting 7 15.6
2019-Aug-18 01:51 248 7 gusting 7 15.6
2019-Aug-18 01:46 270 3 gusting 6 15.6
2019-Aug-18 01:41 270 15.6
2019-Aug-18 01:36 248 2 gusting 3 15.6
2019-Aug-18 01:31 315 4 gusting 4 15.6
2019-Aug-18 01:26 270 6 gusting 8 15.6
2019-Aug-18 01:21 270 1 gusting 9 15.6
2019-Aug-18 01:16 293 15.6
2019-Aug-18 01:11 270 2 gusting 6 16.1
2019-Aug-18 01:06 248 16.1
2019-Aug-18 01:01 248 4 gusting 9 16.1
2019-Aug-18 00:56 248 3 gusting 7 16.1
2019-Aug-18 00:51 225 16.1
2019-Aug-18 00:46 248 2 gusting 6 16.1
2019-Aug-18 00:41 248 6 gusting 10 16.1
2019-Aug-18 00:36 248 4 gusting 6 16.1
2019-Aug-18 00:31 248 4 gusting 6 16.1
2019-Aug-18 00:26 248 3 gusting 8 16.1
2019-Aug-18 00:21 293 5 gusting 9 16.1
2019-Aug-18 00:16 270 1 gusting 5 16.1
2019-Aug-18 00:11 248 3 gusting 5 16.1
2019-Aug-18 00:06 270 16.1
2019-Aug-18 00:01 270 3 gusting 7 16.1
2019-Aug-17 23:56 248 2 gusting 5 16.1
2019-Aug-17 23:51 293 0 gusting 3 16.1
2019-Aug-17 23:46 248 1 gusting 5 16.1
2019-Aug-17 23:41 248 0 gusting 8 16.1
2019-Aug-17 23:36 293 0 gusting 4 16.1
2019-Aug-17 23:31 293 1 gusting 4 16.1
2019-Aug-17 23:26 270 16.1
2019-Aug-17 23:21 248 4 gusting 10 16.1
2019-Aug-17 23:16 248 1 gusting 8 16.1
2019-Aug-17 23:11 270 16.1
2019-Aug-17 23:06 293 4 gusting 10 16.1
2019-Aug-17 23:01 248 3 gusting 8 16.1
2019-Aug-17 22:56 270 5 gusting 10 16.1
2019-Aug-17 22:51 248 16.7
2019-Aug-17 22:46 225 3 gusting 9 16.7
2019-Aug-17 22:41 248 6 gusting 8 16.7
2019-Aug-17 22:36 270 2 gusting 7 16.7
2019-Aug-17 22:31 270 3 gusting 15 16.7
2019-Aug-17 22:26 270 16.7
2019-Aug-17 22:21 248 3 gusting 6 16.7
2019-Aug-17 22:16 270 1 gusting 11 16.7
2019-Aug-17 22:11 293 3 gusting 8 16.7
2019-Aug-17 22:06 248 6 gusting 7 16.7
2019-Aug-17 22:01 248 10 gusting 11 16.7
2019-Aug-17 21:56 293 0 gusting 10 16.7
2019-Aug-17 21:51 270 6 gusting 10 17.2
2019-Aug-17 21:46 270 7 gusting 10 17.2
2019-Aug-17 21:41 270 3 gusting 11 17.2
2019-Aug-17 21:36 248 5 gusting 9 17.2
2019-Aug-17 21:31 270 4 gusting 10 17.2
2019-Aug-17 21:26 225 3 gusting 13 17.2
2019-Aug-17 21:21 248 5 gusting 8 17.8
2019-Aug-17 21:16 293 2 gusting 7 17.8
2019-Aug-17 21:11 293 1 gusting 8 17.8
2019-Aug-17 21:06 248 3 gusting 11 17.8
2019-Aug-17 21:01 248 2 gusting 12 17.8
2019-Aug-17 20:56 248 13 gusting 13 17.8
2019-Aug-17 20:51 270 6 gusting 9 17.8
2019-Aug-17 20:46 248 6 gusting 8 17.8
2019-Aug-17 20:41 248 17.8
2019-Aug-17 20:36 270 1 gusting 5 17.8
2019-Aug-17 20:31 248 2 gusting 10 18.3
2019-Aug-17 20:26 248 7 gusting 7 18.3
2019-Aug-17 20:21 248 3 gusting 6 18.3
2019-Aug-17 20:16 225 2 gusting 9 18.3
2019-Aug-17 20:11 180 3 gusting 8 18.3
2019-Aug-17 20:06 270 1 gusting 5 18.3
2019-Aug-17 20:01 225 4 gusting 8 18.3
2019-Aug-17 19:56 248 3 gusting 6 18.3
2019-Aug-17 19:51 270 18.3
2019-Aug-17 19:46 225 7 gusting 7 18.9
2019-Aug-17 19:41 270 18.9
2019-Aug-17 19:36 248 3 gusting 7 18.9
2019-Aug-17 19:31 248 2 gusting 8 18.9
2019-Aug-17 19:26 270 6 gusting 10 18.9
2019-Aug-17 19:21 270 2 gusting 12 18.9
2019-Aug-17 19:16 248 5 gusting 10 18.9
2019-Aug-17 19:11 225 4 gusting 10 19.4
2019-Aug-17 19:06 158 3 gusting 7 19.4
2019-Aug-17 19:01 270 6 gusting 13 19.4
2019-Aug-17 18:56 270 1 gusting 11 19.4
2019-Aug-17 18:51 248 6 gusting 12 20.0
2019-Aug-17 18:46 225 9 gusting 10 20.0
2019-Aug-17 18:41 203 3 gusting 6 20.0
2019-Aug-17 18:36 248 4 gusting 7 20.0
2019-Aug-17 18:31 225 9 gusting 9 20.0
2019-Aug-17 18:26 270 2 gusting 9 20.6
2019-Aug-17 18:21 270 6 gusting 10 20.6
2019-Aug-17 18:16 248 1 gusting 9 20.6
2019-Aug-17 18:11 248 5 gusting 8 20.6
2019-Aug-17 18:06 248 4 gusting 11 20.6
2019-Aug-17 18:01 293 3 gusting 12 20.6
2019-Aug-17 17:56 248 2 gusting 10 21.1
2019-Aug-17 17:51 225 6 gusting 7 21.1
2019-Aug-17 17:46 225 9 gusting 9 21.7
2019-Aug-17 17:41 225 5 gusting 6 22.2
2019-Aug-17 17:36 225 2 gusting 7 22.8
2019-Aug-17 17:31 225 7 gusting 9 23.3
2019-Aug-17 17:26 180 1 gusting 12 23.3
2019-Aug-17 17:21 203 1 gusting 12 22.8
2019-Aug-17 17:16 225 1 gusting 8 22.8
2019-Aug-17 17:11 270 3 gusting 8 22.8
2019-Aug-17 17:06 248 5 gusting 8 23.3
2019-Aug-17 17:01 248 9 gusting 9 23.3
2019-Aug-17 16:56 315 1 gusting 10 23.9
2019-Aug-17 16:51 225 7 gusting 8 24.4
2019-Aug-17 16:46 270 9 gusting 10 24.4
2019-Aug-17 16:41 248 8 gusting 9 25.6
2019-Aug-17 16:36 203 9 gusting 9 26.1
2019-Aug-17 16:31 270 3 gusting 6 25.6
2019-Aug-17 16:26 248 6 gusting 10 25.0
2019-Aug-17 16:21 270 4 gusting 13 23.9
2019-Aug-17 16:16 248 3 gusting 8 23.3
2019-Aug-17 16:11 248 4 gusting 9 22.2
2019-Aug-17 16:06 248 0 gusting 7 21.7
2019-Aug-17 16:01 225 5 gusting 10 21.7
2019-Aug-17 15:56 203 1 gusting 8 21.7
2019-Aug-17 15:51 248 11 gusting 11 21.1
2019-Aug-17 15:46 270 3 gusting 13 21.1
2019-Aug-17 15:41 225 4 gusting 13 21.1
2019-Aug-17 15:36 248 10 gusting 12 21.1
2019-Aug-17 15:31 225 11 gusting 13 21.1
2019-Aug-17 15:26 248 3 gusting 12 21.1
2019-Aug-17 15:21 248 8 gusting 8 20.6
2019-Aug-17 15:16 270 2 gusting 15 20.6
2019-Aug-17 15:11 225 4 gusting 10 20.6
2019-Aug-17 15:06 270 0 gusting 12 21.1
2019-Aug-17 15:01 248 7 gusting 10 21.1
2019-Aug-17 14:56 158 8 gusting 12 21.7
2019-Aug-17 14:51 225 13 gusting 13 21.7
2019-Aug-17 14:46 248 8 gusting 12 22.2
2019-Aug-17 14:41 203 8 gusting 16 22.8
2019-Aug-17 14:36 248 3 gusting 12 23.3
2019-Aug-17 14:31 270 10 gusting 13 23.3
2019-Aug-17 14:26 248 4 gusting 13 23.3
2019-Aug-17 14:21 248 7 gusting 15 23.9
2019-Aug-17 14:16 248 4 gusting 10 23.3
2019-Aug-17 14:11 270 9 gusting 13 23.3
2019-Aug-17 14:06 270 2 gusting 12 23.3
2019-Aug-17 14:01 225 4 gusting 9 23.3
2019-Aug-17 13:56 270 6 gusting 15 23.3
2019-Aug-17 13:51 248 8 gusting 10 23.9
2019-Aug-17 13:46 248 8 gusting 13 23.9
2019-Aug-17 13:41 270 23.9
2019-Aug-17 13:36 270 11 gusting 12 24.4
2019-Aug-17 13:31 248 3 gusting 16 23.9
2019-Aug-17 13:26 248 7 gusting 9 23.9
2019-Aug-17 13:21 248 9 gusting 13 24.4
2019-Aug-17 13:16 270 6 gusting 12 24.4
2019-Aug-17 13:11 225 2 gusting 9 24.4
2019-Aug-17 13:06 270 9 gusting 9 23.9
2019-Aug-17 13:01 270 6 gusting 13 23.9
2019-Aug-17 12:56 248 6 gusting 15 23.9
2019-Aug-17 12:51 248 14 gusting 14 23.9
2019-Aug-17 12:46 270 10 gusting 13 23.3
2019-Aug-17 12:41 248 6 gusting 7 23.9
2019-Aug-17 12:36 248 2 gusting 14 23.3
2019-Aug-17 12:31 248 4 gusting 12 23.3
2019-Aug-17 12:26 270 2 gusting 8 23.9
2019-Aug-17 12:21 270 4 gusting 8 23.3
2019-Aug-17 12:16 248 8 gusting 9 22.8
2019-Aug-17 12:11 203 5 gusting 15 22.8
2019-Aug-17 12:06 248 7 gusting 10 22.8
2019-Aug-17 12:01 248 7 gusting 13 22.8
2019-Aug-17 11:56 270 4 gusting 12 21.7
2019-Aug-17 11:51 270 6 gusting 8 21.7
2019-Aug-17 11:46 248 1 gusting 12 21.7
2019-Aug-17 11:41 248 3 gusting 10 21.7
2019-Aug-17 11:36 248 7 gusting 10 21.7
2019-Aug-17 11:31 315 5 gusting 9 21.7
2019-Aug-17 11:26 248 3 gusting 13 21.7
2019-Aug-17 11:21 248 8 gusting 8 22.2
2019-Aug-17 11:16 225 6 gusting 11 22.2
2019-Aug-17 11:11 248 2 gusting 11 22.2
2019-Aug-17 11:06 248 6 gusting 10 21.7
2019-Aug-17 11:01 248 4 gusting 15 21.7
2019-Aug-17 10:56 270 6 gusting 8 21.7
2019-Aug-17 10:51 225 3 gusting 12 21.7
2019-Aug-17 10:46 270 8 gusting 11 21.1
2019-Aug-17 10:41 248 2 gusting 12 21.1
2019-Aug-17 10:36 248 2 gusting 16 21.1
2019-Aug-17 10:31 248 3 gusting 9 21.1
2019-Aug-17 10:26 248 2 gusting 11 21.1
2019-Aug-17 10:21 248 7 gusting 11 21.1
2019-Aug-17 10:16 203 3 gusting 10 21.1
2019-Aug-17 10:11 225 9 gusting 13 21.1
2019-Aug-17 10:06 270 5 gusting 13 21.1
2019-Aug-17 10:01 270 5 gusting 13 20.6
2019-Aug-17 09:56 248 5 gusting 11 20.6
2019-Aug-17 09:51 248 4 gusting 14 20.6
2019-Aug-17 09:46 225 10 gusting 10 20.6
2019-Aug-17 09:41 248 8 gusting 8 20.6
2019-Aug-17 09:36 248 10 gusting 10 20.6
2019-Aug-17 09:31 225 3 gusting 15 20.6
2019-Aug-17 09:26 270 2 gusting 10 20.0
2019-Aug-17 09:21 248 11 gusting 11 20.0
2019-Aug-17 09:16 248 4 gusting 11 20.0
2019-Aug-17 09:11 248 6 gusting 10 20.0
2019-Aug-17 09:06 203 4 gusting 11 20.0
2019-Aug-17 09:01 248 6 gusting 8 20.0
2019-Aug-17 08:56 225 4 gusting 12 19.4
2019-Aug-17 08:51 248 4 gusting 6 19.4
2019-Aug-17 08:46 248 2 gusting 8 19.4
2019-Aug-17 08:41 270 3 gusting 15 19.4
2019-Aug-17 08:36 270 1 gusting 8 19.4
2019-Aug-17 08:31 270 7 gusting 12 19.4
2019-Aug-17 08:26 315 1 gusting 7 19.4
2019-Aug-17 08:21 248 6 gusting 10 18.9
2019-Aug-17 08:16 270 4 gusting 10 18.9
2019-Aug-17 08:11 248 8 gusting 16 18.9
2019-Aug-17 08:06 248 4 gusting 10 18.9
2019-Aug-17 08:01 248 9 gusting 10 18.9
2019-Aug-17 07:56 270 18.3
2019-Aug-17 07:51 270 2 gusting 10 18.3
2019-Aug-17 07:46 270 0 gusting 7 18.3
2019-Aug-17 07:41 270 4 gusting 9 18.3
2019-Aug-17 07:36 270 1 gusting 6 18.3
2019-Aug-17 07:31 270 2 gusting 8 17.8
2019-Aug-17 07:26 225 5 gusting 8 17.8
2019-Aug-17 07:21 248 2 gusting 6 17.8
2019-Aug-17 07:16 248 0 gusting 7 17.8
2019-Aug-17 07:11 270 4 gusting 13 17.2
2019-Aug-17 07:06 248 6 gusting 12 17.2
2019-Aug-17 07:01 248 1 gusting 9 17.2
2019-Aug-17 06:56 225 4 gusting 6 16.7
2019-Aug-17 06:51 270 2 gusting 8 16.7
2019-Aug-17 06:46 248 0 gusting 9 16.7
2019-Aug-17 06:41 248 3 gusting 7 16.7
2019-Aug-17 06:36 270 1 gusting 7 16.1
2019-Aug-17 06:31 248 0 gusting 6 16.1
2019-Aug-17 06:26 248 3 gusting 9 16.1
2019-Aug-17 06:21 270 16.1
2019-Aug-17 06:16 293 2 gusting 2 16.1
2019-Aug-17 06:11 248 16.1
2019-Aug-17 06:06 248 2 gusting 9 16.1
2019-Aug-17 06:01 270 3 gusting 6 16.1
2019-Aug-17 05:56 270 1 gusting 2 16.1
2019-Aug-17 05:51 270 1 gusting 4 16.1
2019-Aug-17 05:46 315 2 gusting 6 16.1
2019-Aug-17 05:41 293 16.7
2019-Aug-17 05:36 270 3 gusting 6 16.7
2019-Aug-17 05:31 293 16.7
2019-Aug-17 05:26 293 6 gusting 14 16.7
2019-Aug-17 05:21 293 7 gusting 11 17.2
2019-Aug-17 05:16 270 1 gusting 10 17.2
2019-Aug-17 05:11 248 2 gusting 10 17.2
2019-Aug-17 05:06 270 17.2
2019-Aug-17 05:01 248 7 gusting 10 17.2
2019-Aug-17 04:56 248 5 gusting 8 17.2
2019-Aug-17 04:51 248 3 gusting 6 17.2
2019-Aug-17 04:46 248 3 gusting 6 17.2
2019-Aug-17 04:41 248 6 gusting 6 17.2
2019-Aug-17 04:36 248 5 gusting 6 17.2
2019-Aug-17 04:31 270 3 gusting 8 17.2
2019-Aug-17 04:26 248 6 gusting 7 17.2
2019-Aug-17 04:21 248 2 gusting 6 17.2
2019-Aug-17 04:16 248 5 gusting 6 17.2
2019-Aug-17 04:01 248 0 gusting 8 17.2
2019-Aug-17 03:56 248 17.2
2019-Aug-17 03:51 270 10 gusting 10 17.2
2019-Aug-17 03:46 225 4 gusting 6 17.2
2019-Aug-17 03:41 248 5 gusting 7 17.2
2019-Aug-17 03:36 248 5 gusting 8 17.2
2019-Aug-17 03:31 270 6 gusting 10 17.2
2019-Aug-17 03:26 248 1 gusting 10 17.2
2019-Aug-17 03:21 248 4 gusting 11 17.2
2019-Aug-17 03:16 293 1 gusting 9 17.2
2019-Aug-17 03:11 248 4 gusting 9 17.2
2019-Aug-17 03:06 270 1 gusting 6 17.2
2019-Aug-17 03:01 270 1 gusting 9 17.2
2019-Aug-17 02:56 248 4 gusting 13 17.2
2019-Aug-17 02:51 248 12 gusting 12 17.2
2019-Aug-17 02:46 225 5 gusting 9 17.2
2019-Aug-17 02:41 248 6 gusting 11 17.2
2019-Aug-17 02:36 270 6 gusting 10 17.2
2019-Aug-17 02:31 248 1 gusting 14 17.2
2019-Aug-17 02:26 270 8 gusting 10 17.2
2019-Aug-17 02:21 225 4 gusting 7 17.2
2019-Aug-17 02:16 248 2 gusting 9 17.2
2019-Aug-17 02:11 248 6 gusting 16 17.2
2019-Aug-17 02:06 248 5 gusting 10 17.2
2019-Aug-17 02:01 248 6 gusting 12 16.7
2019-Aug-17 01:56 248 2 gusting 12 16.7
2019-Aug-17 01:51 270 3 gusting 8 16.7
2019-Aug-17 01:46 270 4 gusting 11 16.7
2019-Aug-17 01:41 225 3 gusting 11 16.7
2019-Aug-17 01:36 225 2 gusting 13 16.7
2019-Aug-17 01:31 270 1 gusting 12 16.7
2019-Aug-17 01:26 248 6 gusting 10 16.7
2019-Aug-17 01:21 270 6 gusting 12 16.7
2019-Aug-17 01:16 270 3 gusting 13 16.7
2019-Aug-17 01:11 315 3 gusting 11 16.7
2019-Aug-17 01:06 270 9 gusting 12 16.7
2019-Aug-17 01:01 248 10 gusting 12 16.7
2019-Aug-17 00:56 225 12 gusting 12 16.7
2019-Aug-17 00:51 225 15 gusting 15 16.7
2019-Aug-17 00:46 248 11 gusting 13 16.7
2019-Aug-17 00:41 293 7 gusting 16 16.7
2019-Aug-17 00:36 270 6 gusting 16 16.7
2019-Aug-17 00:31 293 5 gusting 13 16.7
2019-Aug-17 00:26 225 12 gusting 14 16.7
2019-Aug-17 00:21 248 13 gusting 13 16.7
2019-Aug-17 00:16 270 6 gusting 14 16.7
2019-Aug-17 00:11 225 4 gusting 14 16.7
2019-Aug-17 00:06 270 8 gusting 13 16.7
2019-Aug-17 00:01 225 16 gusting 16 16.7
2019-Aug-16 23:56 270 8 gusting 15 16.7
2019-Aug-16 23:51 225 6 gusting 13 16.1
2019-Aug-16 23:46 248 11 gusting 15 16.1
2019-Aug-16 23:41 248 7 gusting 14 16.1
2019-Aug-16 23:36 270 4 gusting 20 16.1
2019-Aug-16 23:31 248 13 gusting 16 16.1
2019-Aug-16 23:26 270 12 gusting 16 16.1
2019-Aug-16 23:21 270 8 gusting 15 16.1
2019-Aug-16 23:16 203 11 gusting 16 16.1
2019-Aug-16 23:11 248 6 gusting 13 16.1
2019-Aug-16 23:06 248 10 gusting 18 16.1
2019-Aug-16 23:01 225 6 gusting 14 16.1
2019-Aug-16 22:56 203 14 gusting 17 16.1
2019-Aug-16 22:51 248 7 gusting 16 16.1
2019-Aug-16 22:46 248 14 gusting 19 16.7
2019-Aug-16 22:41 225 2 gusting 14 16.7
2019-Aug-16 22:36 203 5 gusting 16 16.7
2019-Aug-16 22:31 225 8 gusting 15 16.7
2019-Aug-16 22:26 248 11 gusting 13 16.7
2019-Aug-16 22:21 270 9 gusting 16 17.2
2019-Aug-16 22:16 225 5 gusting 14 17.2
2019-Aug-16 22:11 248 18 gusting 18 17.2
2019-Aug-16 22:06 248 8 gusting 17 17.2
2019-Aug-16 22:01 248 4 gusting 14 17.2
2019-Aug-16 21:56 248 8 gusting 14 17.2
2019-Aug-16 21:51 270 14 gusting 14 17.2
2019-Aug-16 21:46 248 10 gusting 16 17.2
2019-Aug-16 21:41 225 11 gusting 13 16.7
2019-Aug-16 21:36 270 7 gusting 17 16.7
2019-Aug-16 21:31 225 3 gusting 16 16.7
2019-Aug-16 21:26 248 10 gusting 16 16.7
2019-Aug-16 21:21 225 5 gusting 19 16.7
2019-Aug-16 21:16 248 6 gusting 13 16.7
2019-Aug-16 21:11 248 9 gusting 17 16.7
2019-Aug-16 21:06 225 9 gusting 13 16.7
2019-Aug-16 21:01 225 13 gusting 13 16.7
2019-Aug-16 20:56 203 8 gusting 15 16.7
2019-Aug-16 20:51 248 10 gusting 13 16.7
2019-Aug-16 20:46 203 10 gusting 15 16.7
2019-Aug-16 20:41 203 13 gusting 14 16.7
2019-Aug-16 20:36 203 4 gusting 17 16.7
2019-Aug-16 20:31 225 17 gusting 17 16.7
2019-Aug-16 20:26 225 8 gusting 14 16.7
2019-Aug-16 20:21 225 16 gusting 17 16.1
2019-Aug-16 20:16 203 2 gusting 15 16.1
2019-Aug-16 20:11 248 11 gusting 16 16.1
2019-Aug-16 20:06 225 3 gusting 15 16.1
2019-Aug-16 20:01 203 9 gusting 15 16.1
2019-Aug-16 19:56 248 7 gusting 14 16.1
2019-Aug-16 19:51 225 6 gusting 19 16.1
2019-Aug-16 19:46 225 7 gusting 16 16.1
2019-Aug-16 19:41 225 6 gusting 13 16.1
2019-Aug-16 19:36 248 8 gusting 13 16.1
2019-Aug-16 19:31 248 3 gusting 13 16.1
2019-Aug-16 19:26 270 17 gusting 17 16.1
2019-Aug-16 19:21 225 4 gusting 13 16.1
2019-Aug-16 19:16 225 6 gusting 12 16.1
2019-Aug-16 19:11 248 9 gusting 13 16.1
2019-Aug-16 19:06 270 5 gusting 15 16.1
2019-Aug-16 19:01 203 12 gusting 13 16.1
2019-Aug-16 18:56 225 18 gusting 18 15.6
2019-Aug-16 18:51 203 6 gusting 14 16.1
2019-Aug-16 18:46 248 12 gusting 14 16.1
2019-Aug-16 18:41 225 14 gusting 18 16.1
2019-Aug-16 18:36 248 6 gusting 13 16.1
2019-Aug-16 18:31 248 6 gusting 17 16.1
2019-Aug-16 18:26 225 10 gusting 13 16.1
2019-Aug-16 18:21 180 7 gusting 12 16.1
2019-Aug-16 18:16 225 11 gusting 11 16.1
2019-Aug-16 18:11 225 6 gusting 16 16.1
2019-Aug-16 18:06 225 5 gusting 13 16.1
2019-Aug-16 18:01 225 2 gusting 14 16.7
2019-Aug-16 17:56 248 11 gusting 13 16.7
2019-Aug-16 17:51 225 6 gusting 9 16.7
2019-Aug-16 17:46 225 1 gusting 11 16.1
2019-Aug-16 17:41 270 10 gusting 12 16.1
2019-Aug-16 17:36 225 5 gusting 11 16.1
2019-Aug-16 17:31 270 6 gusting 12 16.1
2019-Aug-16 17:26 248 7 gusting 13 16.7
2019-Aug-16 17:21 225 6 gusting 12 16.7
2019-Aug-16 17:16 248 1 gusting 13 16.7
2019-Aug-16 17:11 225 2 gusting 14 16.7
2019-Aug-16 17:06 270 8 gusting 12 16.1
2019-Aug-16 17:01 225 13 gusting 13 16.1
2019-Aug-16 16:56 203 7 gusting 10 16.1
2019-Aug-16 16:51 270 9 gusting 13 16.1
2019-Aug-16 16:46 248 4 gusting 13 16.1
2019-Aug-16 16:41 248 8 gusting 14 16.1
2019-Aug-16 16:36 225 6 gusting 15 16.7
2019-Aug-16 16:31 270 10 gusting 13 16.7
2019-Aug-16 16:26 225 8 gusting 13 16.7
2019-Aug-16 16:21 270 2 gusting 12 16.7
2019-Aug-16 16:16 248 9 gusting 13 16.1
2019-Aug-16 16:11 270 5 gusting 13 16.1
2019-Aug-16 16:06 248 3 gusting 14 16.1
2019-Aug-16 16:01 203 3 gusting 16 16.1
2019-Aug-16 15:56 225 7 gusting 10 16.1
2019-Aug-16 15:51 248 2 gusting 12 16.1
2019-Aug-16 15:46 248 6 gusting 13 16.1
2019-Aug-16 15:41 270 9 gusting 13 16.7
2019-Aug-16 15:36 248 4 gusting 13 16.7
2019-Aug-16 15:31 270 5 gusting 14 16.7
2019-Aug-16 15:26 248 7 gusting 13 17.2
2019-Aug-16 15:21 248 3 gusting 13 17.2
2019-Aug-16 15:16 203 6 gusting 14 17.2
2019-Aug-16 15:11 270 10 gusting 14 17.8
2019-Aug-16 15:06 248 5 gusting 9 17.8
2019-Aug-16 15:01 270 5 gusting 9 17.8
2019-Aug-16 14:56 248 6 gusting 7 17.2
2019-Aug-16 14:51 248 4 gusting 13 17.2
2019-Aug-16 14:46 270 6 gusting 16 17.2
2019-Aug-16 14:41 203 6 gusting 10 16.7
2019-Aug-16 14:36 270 11 gusting 17 16.7
2019-Aug-16 14:31 270 1 gusting 13 16.7
2019-Aug-16 14:26 225 5 gusting 13 17.2
2019-Aug-16 14:21 248 13 gusting 15 17.2
2019-Aug-16 14:16 248 8 gusting 13 17.8
2019-Aug-16 14:06 225 7 gusting 13 17.8
2019-Aug-16 14:01 225 10 gusting 14 17.8